H1 CPF 2 NER 2024 1 24 9 024 01 glonass145 H2 2213001 9145 54031 2024 1 24 0 0 0 2024 1 27 23 45 0 900 1 1 0 0 0 1 H9 10 0 60333 0.00000 0 8108848.225 -7353223.913 23048539.429 10 0 60333 900.00000 0 10262532.502 -5531794.479 22695099.702 10 0 60333 1800.00000 0 12486974.877 -3914426.296 21901256.200 10 0 60333 2700.00000 0 14719702.597 -2530767.838 20682328.771 10 0 60333 3600.00000 0 16894982.378 -1398515.497 19061887.229 10 0 60333 4500.00000 0 18946420.592 -522886.757 17071302.920 10 0 60333 5400.00000 0 20809610.292 103374.105 14749148.594 10 0 60333 6300.00000 0 22424715.061 499458.423 12140457.245 10 0 60333 7200.00000 0 23738881.820 695446.542 9295853.530 10 0 60333 8100.00000 0 24708381.415 730796.638 6270573.990 10 0 60333 9000.00000 0 25300386.856 652433.062 3123394.765 10 0 60333 9900.00000 0 25494313.955 512515.477 -84512.338 10 0 60333 10800.00000 0 25282667.385 365983.808 -3290772.896 10 0 60333 11700.00000 0 24671355.945 267983.758 -6433028.293 10 0 60333 12600.00000 0 23679463.266 271282.942 -9450155.032 10 0 60333 13500.00000 0 22338483.237 423788.166 -12283460.392 10 0 60333 14400.00000 0 20691052.173 766270.216 -14877830.376 10 0 60333 15300.00000 0 18789231.048 1330393.603 -17182806.890 10 0 60333 16200.00000 0 16692410.111 2137135.770 -19153572.714 10 0 60333 17100.00000 0 14464924.031 3195663.612 -20751824.852 10 0 60333 18000.00000 0 12173477.758 4502715.682 -21946519.227 10 0 60333 18900.00000 0 9884490.974 6042517.023 -22714472.439 10 0 60333 19800.00000 0 7661472.121 7787231.020 -23040809.255 10 0 60333 20700.00000 0 5562531.442 9697930.004 -22919247.550 10 0 60333 21600.00000 0 3638136.333 11726044.559 -22352215.644 10 0 60333 22500.00000 0 1929201.820 13815231.414 -21350800.168 10 0 60333 23400.00000 0 465594.831 15903582.226 -19934525.818 10 0 60333 24300.00000 0 -734886.654 17926081.317 -18130971.528 10 0 60333 25200.00000 0 -1667018.390 19817209.981 -15975230.628 10 0 60333 26100.00000 0 -2338119.106 21513588.763 -13509225.585 10 0 60333 27000.00000 0 -2767487.145 22956547.497 -10780890.664 10 0 60333 27900.00000 0 -2985329.811 24094515.834 -7843238.431 10 0 60333 28800.00000 0 -3031231.933 24885134.433 -4753328.332 10 0 60333 29700.00000 0 -2952229.529 25296998.686 -1571157.498 10 0 60333 30600.00000 0 -2800570.921 25310962.209 1641504.503 10 0 60333 31500.00000 0 -2631260.730 24920945.803 4822314.149 10 0 60333 32400.00000 0 -2499491.176 24134218.311 7909562.252 10 0 60333 33300.00000 0 -2458069.660 22971137.895 10843368.581 10 0 60333 34200.00000 0 -2554951.648 21464364.851 13566839.630 10 0 60333 35100.00000 0 -2830983.193 19657578.996 16027167.336 10 0 60333 36000.00000 0 -3317948.558 17603755.250 18176647.848 10 0 60333 36900.00000 0 -4037005.473 15363069.236 19973601.088 10 0 60333 37800.00000 0 -4997574.259 13000519.837 21383173.939 10 0 60333 38700.00000 0 -6196728.170 10583367.192 22378012.172 10 0 60333 39600.00000 0 -7619111.364 8178491.997 22938788.646 10 0 60333 40500.00000 0 -9237389.078 5849785.072 23054578.037 10 0 60333 41400.00000 0 -11013212.525 3655674.764 22723071.019 10 0 60333 42300.00000 0 -12898659.621 1646894.007 21950623.715 10 0 60333 43200.00000 0 -14838092.889 -135420.976 20752141.122 10 0 60333 44100.00000 0 -16770358.401 -1661222.070 19150796.124 10 0 60333 45000.00000 0 -18631235.140 -2912569.285 17177588.755 10 0 60333 45900.00000 0 -20356033.449 -3884137.436 14870753.321 10 0 60333 46800.00000 0 -21882234.504 -4583188.833 12275023.906 10 0 60333 47700.00000 0 -23152060.581 -5029013.543 9440771.720 10 0 60333 48600.00000 0 -24114868.270 -5251861.228 6423030.404 10 0 60333 49500.00000 0 -24729263.786 -5291409.984 3280427.837 10 0 60333 50400.00000 0 -24964850.821 -5194837.331 74045.229 10 0 60333 51300.00000 0 -24803536.614 -5014575.540 -3133774.057 10 0 60333 52200.00000 0 -24240340.435 -4805847.041 -6280642.242 10 0 60333 53100.00000 0 -23283669.614 -4624085.200 -9305346.975 10 0 60333 54000.00000 0 -21955050.825 -4522350.719 -12149048.707 10 0 60333 54900.00000 0 -20288327.432 -4548854.173 -14756431.511 10 0 60333 55800.00000 0 -18328356.304 -4744690.648 -17076784.221 10 0 60333 56700.00000 0 -16129258.730 -5141883.373 -19064990.361 10 0 60333 57600.00000 0 -13752298.732 -5761819.978 -20682407.355 10 0 60333 58500.00000 0 -11263477.717 -6614148.244 -21897617.878 10 0 60333 59400.00000 0 -8730946.082 -7696178.660 -22687038.911 10 0 60333 60300.00000 0 -6222339.796 -8992819.588 -23035377.068 10 0 60333 61200.00000 0 -3802152.868 -10477048.310 -22935921.729 10 0 60333 62100.00000 0 -1529254.767 -12110898.676 -22390670.764 10 0 60333 63000.00000 0 545344.468 -13846924.348 -21410286.850 10 0 60333 63900.00000 0 2380389.240 -15630076.646 -20013885.513 10 0 60333 64800.00000 0 3945855.748 -17399918.640 -18228659.306 10 0 60333 65700.00000 0 5223951.490 -19093083.014 -16089345.504 10 0 60333 66600.00000 0 6209596.722 -20645870.927 -13637547.793 10 0 60333 67500.00000 0 6910369.436 -21996883.159 -10920925.108 10 0 60333 68400.00000 0 7345917.897 -23089573.408 -7992263.465 10 0 60333 69300.00000 0 7546867.042 -23874616.767 -4908448.883 10 0 60333 70200.00000 0 7553266.293 -24311994.153 -1729361.494 10 0 60333 71100.00000 0 7412645.502 -24372705.331 1483287.554 10 0 60333 72000.00000 0 7177762.136 -24040038.755 4667153.544 10 0 60333 72900.00000 0 6904135.637 -23310345.074 7760466.649 10 0 60333 73800.00000 0 6647473.709 -22193281.913 10703227.841 10 0 60333 74700.00000 0 6461099.583 -20711519.723 13438369.074 10 0 60333 75600.00000 0 6393489.098 -18899920.922 15912855.477 10 0 60333 76500.00000 0 6486021.603 -16804226.454 18078708.539 10 0 60333 77400.00000 0 6771039.564 -14479304.266 19893930.997 10 0 60333 78300.00000 0 7270298.734 -11987032.194 21323316.119 10 0 60333 79200.00000 0 7993874.321 -9393902.720 22339126.384 10 0 60333 80100.00000 0 8939569.639 -6768448.368 22921629.003 10 0 60333 81000.00000 0 10092852.764 -4178593.756 23059478.353 10 0 60333 81900.00000 0 11427324.875 -1689043.209 22749938.191 10 0 60333 82800.00000 0 12905701.836 641188.612 21998939.251 10 0 60333 83700.00000 0 14481269.263 2761001.517 20820970.816 10 0 60333 84600.00000 0 16099751.556 4629098.492 19238807.753 10 0 60333 85500.00000 0 17701517.872 6215460.475 17283077.469 10 0 60334 0.00000 0 19224033.636 7502346.314 14991674.518 10 0 60334 900.00000 0 20604456.382 8484777.380 12409031.911 10 0 60334 1800.00000 0 21782265.427 9170485.362 9585265.646 10 0 60334 2700.00000 0 22701817.716 9579328.226 6575204.283 10 0 60334 3600.00000 0 23314719.981 9742197.572 3437325.064 10 0 60334 4500.00000 0 23581917.609 9699464.708 232616.058 10 0 60334 5400.00000 0 23475411.232 9499031.550 -2976613.089 10 0 60334 6300.00000 0 22979527.748 9194069.456 -6127948.134 10 0 60334 7200.00000 0 22091691.176 8840542.534 -9160090.526 10 0 60334 8100.00000 0 20822659.921 8494621.207 -12014056.418 10 0 60334 9000.00000 0 19196219.628 8210096.538 -14634330.300 10 0 60334 9900.00000 0 17248343.893 8035905.730 -16969950.045 10 0 60334 10800.00000 0 15025857.609 8013874.440 -18975501.795 10 0 60334 11700.00000 0 12584658.679 8176772.146 -20612005.029 10 0 60334 12600.00000 0 9987572.398 8546763.410 -21847670.565 10 0 60334 13500.00000 0 7301928.033 9134320.912 -22658516.942 10 0 60334 14400.00000 0 4596958.605 9937646.510 -23028833.534 10 0 60334 15300.00000 0 1941132.052 10942625.015 -22951481.843 10 0 60334 16200.00000 0 -600475.478 12123312.875 -22428029.581 10 0 60334 17100.00000 0 -2968655.474 13442941.441 -21468715.347 10 0 60334 18000.00000 0 -5112289.787 14855392.835 -20092244.948 10 0 60334 18900.00000 0 -6990228.759 16307086.593 -18325423.558 10 0 60334 19800.00000 0 -8572747.790 17739198.047 -16202630.974 10 0 60334 20700.00000 0 -9842523.011 19090115.371 -13765150.266 10 0 60334 21600.00000 0 -10795086.921 20298032.227 -11060362.883 10 0 60334 22500.00000 0 -11438746.617 21303567.166 -8140825.858 10 0 60334 23400.00000 0 -11793969.689 22052299.732 -5063249.156 10 0 60334 24300.00000 0 -11892265.212 22497116.690 -1887393.133 10 0 60334 25200.00000 0 -11774608.378 22600269.742 1325092.317 10 0 60334 26100.00000 0 -11489476.374 22335058.192 4511864.156 10 0 60334 27000.00000 0 -11090579.372 21687065.797 7611094.760 10 0 60334 27900.00000 0 -10634383.096 20654899.779 10562669.088 10 0 60334 28800.00000 0 -10177528.030 19250400.790 13309347.250 10 0 60334 29700.00000 0 -9774254.393 17498314.818 15797870.114 10 0 60334 30600.00000 0 -9473941.563 15435440.334 17979986.911 10 0 60334 31500.00000 0 -9318865.579 13109285.820 19813385.396 10 0 60334 32400.00000 0 -9342269.076 10576292.962 21262507.189 10 0 60334 33300.00000 0 -9566824.810 7899698.655 22299233.182 10 0 60334 34200.00000 0 -10003557.442 5147123.750 22903426.313 10 0 60334 35100.00000 0 -10651269.183 2387987.625 23063321.687 10 0 60334 36000.00000 0 -11496493.960 -309145.295 22775756.730 10 0 60334 36900.00000 0 -12513982.809 -2879178.054 22046236.906 10 0 60334 37800.00000 0 -13667701.141 -5262945.428 20888835.401 10 0 60334 38700.00000 0 -14912297.181 -7409428.600 19325928.137 10 0 60334 39600.00000 0 -16194981.148 -9277629.005 17387768.443 10 0 60334 40500.00000 0 -17457737.304 -10838024.064 15111908.719 10 0 60334 41400.00000 0 -18639776.881 -12073544.675 12542479.325 10 0 60334 42300.00000 0 -19680129.246 -12980034.057 9729337.871 10 0 60334 43200.00000 0 -20520262.498 -13566169.169 6727104.760 10 0 60334 44100.00000 0 -21106622.960 -13852848.413 3594103.313 10 0 60334 45000.00000 0 -21392985.926 -13872071.859 391225.057 10 0 60334 45900.00000 0 -21342517.756 -13665361.735 -2819257.526 10 0 60334 46800.00000 0 -20929461.250 -13281790.531 -5974907.169 10 0 60334 47700.00000 0 -20140372.047 -12775700.835 -9014342.499 10 0 60334 48600.00000 0 -18974852.775 -12204214.209 -11878438.641 10 0 60334 49500.00000 0 -17445752.917 -11624635.381 -14511483.588 10 0 60334 50400.00000 0 -15578825.022 -11091862.503 -16862267.100 10 0 60334 51300.00000 0 -13411850.961 -10655913.795 -18885080.429 10 0 60334 52200.00000 0 -10993274.236 -10359675.820 -20540607.164 10 0 60334 53100.00000 0 -8380395.193 -10236969.010 -21796687.794 10 0 60334 54000.00000 0 -5637204.245 -10311012.467 -22628943.331 10 0 60334 54900.00000 0 -2831943.206 -10593352.900 -23021246.203 10 0 60334 55800.00000 0 -34496.089 -11083302.942 -22966029.716 10 0 60334 56700.00000 0 2686282.416 -11767912.393 -22464430.516 10 0 60334 57600.00000 0 5265190.178 -12622473.547 -21526261.727 10 0 60334 58500.00000 0 7643144.113 -13611539.186 -20169817.605 10 0 60334 59400.00000 0 9769388.223 -14690410.358 -18421513.748 10 0 60334 60300.00000 0 11603352.344 -15807031.238 -16315369.979 10 0 60334 61200.00000 0 13116085.371 -16904211.312 -13892346.007 10 0 60334 62100.00000 0 14291204.592 -17922081.314 -11199542.831 10 0 60334 63000.00000 0 15125322.972 -18800679.499 -8289285.372 10 0 60334 63900.00000 0 15627938.096 -19482559.288 -5218104.303 10 0 60334 64800.00000 0 15820788.979 -19915308.406 -2045636.931 10 0 60334 65700.00000 0 15736709.292 -20053873.328 1166531.347 10 0 60334 66600.00000 0 15418026.565 -19862591.013 4356062.289 10 0 60334 67500.00000 0 14914575.931 -19316842.273 7461073.379 10 0 60334 68400.00000 0 14281412.981 -18404256.985 10421336.199 10 0 60334 69300.00000 0 13576322.765 -17125420.247 13179441.306 10 0 60334 70200.00000 0 12857230.279 -15494049.420 15681907.235 10 0 60334 71100.00000 0 12179621.615 -13536634.116 17880212.492 10 0 60334 72000.00000 0 11594084.307 -11291553.518 19731730.982 10 0 60334 72900.00000 0 11144070.113 -8807707.028 21200553.427 10 0 60334 73800.00000 0 10863974.037 -6142714.309 22258179.495 10 0 60334 74700.00000 0 10777610.090 -3360758.480 22884067.858 10 0 60334 75600.00000 0 10897147.672 -530160.872 23066034.002 10 0 60334 76500.00000 0 11222553.315 2279213.320 22800488.372 10 0 60334 77400.00000 0 11741561.567 4998612.036 22092510.217 10 0 60334 78300.00000 0 12430176.748 7563007.029 20955755.421 10 0 60334 79200.00000 0 13253685.314 9913550.906 19412199.527 10 0 60334 80100.00000 0 14168137.126 11999779.347 17491720.143 10 0 60334 81000.00000 0 15122234.283 13781467.622 15231525.904 10 0 60334 81900.00000 0 16059548.828 15230064.614 12675442.088 10 0 60334 82800.00000 0 16920976.504 16329644.833 9873065.932 10 0 60334 83700.00000 0 17647323.456 17077338.964 6878807.341 10 0 60334 84600.00000 0 18181916.680 17483225.156 3750833.241 10 0 60334 85500.00000 0 18473127.599 17569685.971 549936.048 10 0 60335 0.00000 0 18476701.479 17370258.491 -2661651.248 10 0 60335 900.00000 0 18157793.192 16928026.451 -5821471.524 10 0 60335 1800.00000 0 17492622.227 16293623.255 -8868062.787 10 0 60335 2700.00000 0 16469675.843 15522930.620 -11742161.461 10 0 60335 3600.00000 0 15090408.228 14674571.134 -14387861.167 10 0 60335 4500.00000 0 13369405.131 13807301.491 -16753705.432 10 0 60335 5400.00000 0 11334005.951 12977417.254 -18793692.267 10 0 60335 6300.00000 0 9023398.272 12236279.419 -20468170.791 10 0 60335 7200.00000 0 6487222.065 11628067.557 -21744612.372 10 0 60335 8100.00000 0 3783741.367 11187854.553 -22598241.498 10 0 60335 9000.00000 0 977659.263 10940084.066 -23012514.431 10 0 60335 9900.00000 0 -1862333.105 10897514.676 -22979436.782 10 0 60335 10800.00000 0 -4666171.955 11060674.806 -22499714.321 10 0 60335 11700.00000 0 -7365092.349 11417850.974 -21582734.486 10 0 60335 12600.00000 0 -9894245.246 11945609.364 -20246379.349 10 0 60335 13500.00000 0 -12195152.005 12609828.330 -18516673.853 10 0 60335 14400.00000 0 -14217895.119 13367197.946 -16427276.342 10 0 60335 15300.00000 0 -15922954.912 14167123.097 -14018821.298 10 0 60335 16200.00000 0 -17282616.848 14953949.616 -11338127.102 10 0 60335 17100.00000 0 -18281891.966 15669419.421 -8437284.199 10 0 60335 18000.00000 0 -18918913.317 16255250.885 -5372641.468 10 0 60335 18900.00000 0 -19204793.236 16655735.427 -2203710.592 10 0 60335 19800.00000 0 -19162948.844 16820240.610 1007990.128 10 0 60335 20700.00000 0 -18827925.413 16705513.956 4200129.846 10 0 60335 21600.00000 0 -18243768.263 16277690.136 7310773.751 10 0 60335 22500.00000 0 -17462012.656 15513916.697 10279582.602 10 0 60335 23400.00000 0 -16539377.020 14403529.536 13048979.921 10 0 60335 24300.00000 0 -15535257.040 12948728.276 15565264.350 10 0 60335 25200.00000 0 -14509126.248 11164722.580 17779645.982 10 0 60335 26100.00000 0 -13517952.328 9079342.522 19649187.031 10 0 60335 27000.00000 0 -12613737.470 6732128.373 21137629.256 10 0 60335 27900.00000 0 -11841285.628 4172936.626 22216092.776 10 0 60335 28800.00000 0 -11236289.953 1460119.107 22863633.356 10 0 60335 29700.00000 0 -10823820.190 -1341650.501 23067647.878 10 0 60335 30600.00000 0 -10617273.173 -4163813.859 22824120.430 10 0 60335 31500.00000 0 -10617830.299 -6936529.106 22137704.250 10 0 60335 32400.00000 0 -10814444.842 -9591329.317 21021637.690 10 0 60335 33300.00000 0 -11184359.906 -12063729.101 19497495.222 10 0 60335 34200.00000 0 -11694135.777 -14295672.018 17594777.594 10 0 60335 35100.00000 0 -12301144.000 -16237717.770 15350348.098 10 0 60335 36000.00000 0 -12955465.909 -17850878.638 12807724.963 10 0 60335 36900.00000 0 -13602116.063 -19108028.811 10016242.729 10 0 60335 37800.00000 0 -14183497.041 -19994827.928 7030098.208 10 0 60335 38700.00000 0 -14641981.977 -20510120.263 3907299.122 10 0 60335 39600.00000 0 -14922515.314 -20665792.922 708535.799 10 0 60335 40500.00000 0 -14975121.201 -20486099.239 -2504001.919 10 0 60335 41400.00000 0 -14757212.486 -20006476.167 -5667839.055 10 0 60335 42300.00000 0 -14235601.516 -19271906.011 -8721436.778 10 0 60335 43200.00000 0 -13388126.453 -18334892.210 -11605396.012 10 0 60335 44100.00000 0 -12204823.087 -17253135.318 -14263619.149 10 0 60335 45000.00000 0 -10688591.401 -16087008.000 -16644406.486 10 0 60335 45900.00000 0 -8855327.591 -14896936.320 -18701465.566 10 0 60335 46800.00000 0 -6733514.884 -13740798.309 -20394813.466 10 0 60335 47700.00000 0 -4363289.396 -12671449.904 -21691554.433 10 0 60335 48600.00000 0 -1795019.331 -11734482.606 -22566517.907 10 0 60335 49500.00000 0 912543.793 -10966307.153 -23002744.903 10 0 60335 50400.00000 0 3694465.285 -10392643.525 -22991813.691 10 0 60335 51300.00000 0 6482087.692 -10027480.196 -22533998.958 10 0 60335 52200.00000 0 9205649.567 -9872545.748 -21638261.760 10 0 60335 53100.00000 0 11796954.179 -9917314.225 -20322070.811 10 0 60335 54000.00000 0 14191977.764 -10139543.232 -18611058.820 10 0 60335 54900.00000 0 16333309.487 -10506321.307 -16538520.663 10 0 60335 55800.00000 0 18172322.297 -10975579.746 -14144763.222 10 0 60335 56700.00000 0 19670985.101 -11498004.531 -11476319.524 10 0 60335 57600.00000 0 20803241.683 -12019267.195 -8585042.447 10 0 60335 58500.00000 0 21555899.811 -12482480.037 -5527095.700 10 0 60335 59400.00000 0 21928994.559 -12830771.641 -2361861.765 10 0 60335 60300.00000 0 21935611.820 -13009873.659 849211.837 10 0 60335 61200.00000 0 21601180.597 -12970609.296 4043805.305 10 0 60335 62100.00000 0 20962264.922 -12671178.183 7159935.012 10 0 60335 63000.00000 0 20064907.097 -12079140.928 10137154.112 10 0 60335 63900.00000 0 18962592.667 -11173019.339 12917721.918 10 0 60335 64800.00000 0 17713923.161 -9943444.486 15447719.581 10 0 60335 65700.00000 0 16380094.599 -8393803.741 17678090.722 10 0 60335 66600.00000 0 15022287.651 -6540358.894 19565587.340 10 0 60335 67500.00000 0 13699078.660 -4411829.423 21073603.255 10 0 60335 68400.00000 0 12463979.635 -2048457.171 22172879.636 10 0 60335 69300.00000 0 11363209.694 499409.878 22842069.533 10 0 60335 70200.00000 0 10433790.682 3173157.182 23068151.031 10 0 60335 71100.00000 0 9702046.073 5908091.663 22846681.300 10 0 60335 72000.00000 0 9182565.539 8635888.706 22181886.661 10 0 60335 72900.00000 0 8877678.244 11287197.992 21086586.694 10 0 60335 73800.00000 0 8777456.776 13794301.207 19581953.275 10 0 60335 74700.00000 0 8860251.636 16093712.215 17697108.477 10 0 60335 75600.00000 0 9093733.991 18128612.362 15468568.201 10 0 60335 76500.00000 0 9436403.110 19851019.989 12939541.356 10 0 60335 77400.00000 0 9839495.224 21223603.917 10159097.325 10 0 60335 78300.00000 0 10249213.405 22221065.194 7181217.198 10 0 60335 79200.00000 0 10609184.270 22831029.221 4063746.727 10 0 60335 80100.00000 0 10863037.293 23054410.720 867271.313 10 0 60335 81000.00000 0 10956997.051 22905236.205 -2346064.923 10 0 60335 81900.00000 0 10842377.803 22409931.479 -5513772.522 10 0 60335 82800.00000 0 10477873.739 21606104.376 -8574238.187 10 0 60335 83700.00000 0 9831546.746 20540874.442 -11467929.791 10 0 60335 84600.00000 0 8882426.304 19268820.476 -14138560.692 10 0 60335 85500.00000 0 7621652.570 17849633.042 -16534189.879 10 0 60336 0.00000 0 6053113.311 16345571.634 -18608235.903 10 0 60336 900.00000 0 4193545.721 14818833.294 -20320385.561 10 0 60336 1800.00000 0 2072099.938 13328945.845 -21637376.917 10 0 60336 2700.00000 0 -270621.202 11930292.837 -22533645.269 10 0 60336 3600.00000 0 -2784004.784 10669876.113 -22991817.027 10 0 60336 4500.00000 0 -5409294.038 9585408.791 -23003043.469 10 0 60336 5400.00000 0 -8081800.780 8703818.224 -22567168.201 10 0 60336 6300.00000 0 -10733372.482 8040220.907 -21692725.484 10 0 60336 7200.00000 0 -13295011.739 7597411.353 -20396769.831 10 0 60336 8100.00000 0 -15699539.619 7365885.290 -18704540.406 10 0 60336 9000.00000 0 -17884192.618 7324395.083 -16648966.904 10 0 60336 9900.00000 0 -19793045.588 7441012.897 -14270026.534 10 0 60336 10800.00000 0 -21379160.351 7674655.847 -11613964.627 10 0 60336 11700.00000 0 -22606371.074 7977007.940 -8732393.986 10 0 60336 12600.00000 0 -23450632.621 8294756.985 -5681290.545 10 0 60336 13500.00000 0 -23900876.394 8572051.351 -2519904.941 10 0 60336 14400.00000 0 -23959338.769 8753072.310 690388.719 10 0 60336 15300.00000 0 -23641349.309 8784612.796 3887284.290 10 0 60336 16200.00000 0 -22974588.611 8618553.297 7008751.917 10 0 60336 17100.00000 0 -21997847.748 8214129.927 9994239.679 10 0 60336 18000.00000 0 -20759342.129 7539898.652 12785845.163 10 0 60336 18900.00000 0 -19314651.036 6575312.419 15329434.390 10 0 60336 19800.00000 0 -17724369.553 5311844.284 17575686.725 10 0 60336 20700.00000 0 -16051571.361 3753608.646 19481045.947 10 0 60336 21600.00000 0 -14359188.437 1917453.654 21008559.665 10 0 60336 22500.00000 0 -12707416.858 -167480.208 22128591.498 10 0 60336 23400.00000 0 -11151256.589 -2460718.196 22819392.836 10 0 60336 24300.00000 0 -9738287.341 -4911887.530 23067523.643 10 0 60336 25200.00000 0 -8506772.640 -7462573.571 22868114.466 10 0 60336 26100.00000 0 -7484170.627 -10048520.257 22224964.639 10 0 60336 27000.00000 0 -6686113.186 -12602084.864 21150474.527 10 0 60336 27900.00000 0 -6115895.640 -15054846.423 19665412.605 10 0 60336 28800.00000 0 -5764498.080 -17340260.435 17798521.125 10 0 60336 29700.00000 0 -5611137.232 -19396250.261 15585967.115 10 0 60336 30600.00000 0 -5624325.647 -21167627.793 13070648.376 10 0 60336 31500.00000 0 -5763393.619 -22608242.594 10301367.088 10 0 60336 32400.00000 0 -5980409.620 -23682769.719 7331886.342 10 0 60336 33300.00000 0 -6222418.035 -24368061.155 4219887.485 10 0 60336 34200.00000 0 -6433899.239 -24654003.911 1025848.419 10 0 60336 35100.00000 0 -6559347.387 -24543848.418 -2188135.127 10 0 60336 36000.00000 0 -6545855.955 -24053993.202 -5359561.975 10 0 60336 36900.00000 0 -6345600.532 -23213234.816 -8426747.176 10 0 60336 37800.00000 0 -5918112.550 -22061514.696 -11330028.428 10 0 60336 38700.00000 0 -5232246.438 -20648215.983 -14012932.922 10 0 60336 39600.00000 0 -4267755.713 -19030082.431 -16423281.158 10 0 60336 40500.00000 0 -3016410.141 -17268847.469 -18514205.694 10 0 60336 41400.00000 0 -1482605.623 -15428673.540 -20245064.736 10 0 60336 42300.00000 0 316559.990 -13573509.741 -21582232.664 10 0 60336 43200.00000 0 2351749.370 -11764478.817 -22499752.335 10 0 60336 44100.00000 0 4582368.019 -10057403.051 -22979836.797 10 0 60336 45000.00000 0 6958026.058 -8500572.438 -23013211.102 10 0 60336 45900.00000 0 9420419.133 -7132847.968 -22599288.075 10 0 60336 46800.00000 0 11905550.558 -5982178.605 -21746175.032 10 0 60336 47700.00000 0 14346202.538 -5064592.952 -20470511.699 10 0 60336 48600.00000 0 16674553.981 -4383706.593 -18797142.702 10 0 60336 49500.00000 0 18824836.263 -3930764.409 -16758631.122 10 0 60336 50400.00000 0 20735916.652 -3685214.703 -14394622.632 10 0 60336 51300.00000 0 22353702.099 -3615789.665 -11751072.557 10 0 60336 52200.00000 0 23633263.558 -3682045.437 -8879350.880 10 0 60336 53100.00000 0 24540592.583 -3836295.795 -5835242.617 10 0 60336 54000.00000 0 25053917.339 -4025856.883 -2677863.110 10 0 60336 54900.00000 0 25164523.596 -4195507.459 531490.599 10 0 60336 55800.00000 0 24877046.995 -4290060.035 3730529.745 10 0 60336 56700.00000 0 24209225.029 -4256933.789 6857181.886 10 0 60336 57600.00000 0 23191119.813 -4048620.080 9850793.470 10 0 60336 58500.00000 0 21863844.794 -3624936.112 12653303.481 10 0 60336 59400.00000 0 20277849.228 -2954971.277 15210365.567 10 0 60336 60300.00000 0 18490832.502 -2018643.718 17472397.172 10 0 60336 61200.00000 0 16565375.669 -807801.052 19395535.757 10 0 60336 62100.00000 0 14566388.998 673181.706 20942484.201 10 0 60336 63000.00000 0 12558481.755 2407333.060 22083229.647 10 0 60336 63900.00000 0 10603363.371 4365548.828 22795622.489 10 0 60336 64800.00000 0 8757383.639 6507570.798 23065804.836 10 0 60336 65700.00000 0 7069313.606 8783440.952 22888480.482 10 0 60336 66600.00000 0 5578458.869 11135372.220 22267021.223 10 0 60336 67500.00000 0 4313183.100 13499959.404 21213407.261 10 0 60336 68400.00000 0 3289902.718 15810639.739 19748002.325 10 0 60336 69300.00000 0 2512594.152 18000301.809 17899167.138 10 0 60336 70200.00000 0 1972833.851 20003935.096 15702717.813 10 0 60336 71100.00000 0 1650369.007 21761210.306 13201238.717 10 0 60336 72000.00000 0 1514194.799 23218882.951 10443262.242 10 0 60336 72900.00000 0 1524092.510 24332919.672 7482330.706 10 0 60336 73800.00000 0 1632563.400 25070257.938 4375958.103 10 0 60336 74700.00000 0 1787076.202 25410124.841 1184511.794 10 0 60336 75600.00000 0 1932532.621 25344859.068 -2029963.969 10 0 60336 76500.00000 0 2013845.703 24880200.986 -5204959.320 10 0 60336 77400.00000 0 1978520.905 24035038.226 -8278720.576 10 0 60336 78300.00000 0 1779129.460 22840617.243 -11191457.961 10 0 60336 79200.00000 0 1375568.081 21339253.997 -13886514.958 10 0 60336 80100.00000 0 737008.147 19582598.106 -16311475.729 10 0 60336 81000.00000 0 -156549.246 17629523.735 -18419188.544 10 0 60336 81900.00000 0 -1313179.224 15543736.088 -20168684.957 10 0 60336 82800.00000 0 -2728447.247 13391194.255 -21525976.762 10 0 60336 83700.00000 0 -4385357.047 11237458.589 -22464715.385 10 0 60336 84600.00000 0 -6254835.497 9145073.649 -22966701.232 10 0 60336 85500.00000 0 -8296734.825 7171095.946 -23022233.523 99